Regional Weather Roundup
Issued by NWS

Current Version | Previous Version | Text Only | Print | Product List | Glossary On
Versions: 1 2 3 4 5 6 7 8 9 10 11 12 13 14 15 16 17 18 19 20 21 22 23 24 25 26 27 28 29 30 31 32 33 34 35 36 37 38 39 40 41 42 43 44 45 46 47 48 49 50
000
ASCA42 TJSJ 252311
RWRPR
PUERTO RICO/U.S. VIRGIN ISLANDS HOURLY WEATHER ROUNDUP
NATIONAL WEATHER SERVICE SAN JUAN PR
700 PM AST FRI JUL 25 2014

PRZ001-004-260000-
PUERTO RICO

CITY           SKY/WX    TMP DP  RH WIND       PRES   REMARKS
SAN JUAN LMM   PTCLDY    82  75  78 E14       30.03R
PONCE          PTCLDY    86  77  74 SE12G17   29.96R HX  97
AGUADILLA      MOCLDY    81  75  83 E15G24    30.03R
CEIBA          PTCLDY    82  73  74 E8        30.05R
$$

PRZ006-007-260000-
U.S. VIRGIN ISLANDS

CITY           SKY/WX    TMP DP  RH WIND       PRES   REMARKS
CHARLOTTE AMA  CLEAR     84  75  74 E13       30.02R HX  92
CHRISTIANSTED  PTCLDY    84  73  70 NE9G20    30.02R HX  91
$$

HOURLY WEATHER ROUNDUP FOR THE NEWS MEDIA

CITY           SKY/WX    TMP DP  RH WIND       PRES   REMARKS
MIAMI          MOSUNNY   87  76  69 SE9       30.04R HX  97
ORLANDO        CLOUDY    79  74  84 NE12      30.08R
NEW YORK       MOSUNNY   75  61  61 S15       29.98S
NEWARK         MOSUNNY   80  58  46 S8        29.96S
CHICAGO        PTSUNNY   73  57  57 SW8       29.93F
HARTFORD       SUNNY     73  58  59 S8        29.95S
BOSTON         PTSUNNY   80  54  40 W9        29.92F
DALLAS         MOSUNNY   98  64  32 S14       29.89F HX 100
PHILADELPHIA   MOSUNNY   82  54  37 SW10      29.99R



USA.gov is the U.S. government's official web portal to all federal, state and local government web resources and services.